Home   Weather   USA   Wharton   Past weeks
Flag for USA

Past Weather in Wharton, Texas, USA — Yesterday and Last 2 Weeks

Currently: 91 °F. Scattered clouds. (Weather station: Wharton, Wharton Regional Airport, USA). See more current weather

Past Weather in Wharton — Graph

°F

Wharton Temperature Yesterday

Maximum temperature yesterday: 91 °F (at 3:55 pm)
Minimum temperature yesterday: 76 °F (at 5:55 am)
Average temperature yesterday: 83 °F

High & Low Weather Summary for the Past Weeks

 TemperatureHumidityPressure
High94 °F (Jun 7, 4:55 pm)100% (Jun 8, 4:15 am)30.12 "Hg (Jun 8, 4:15 am)
Low71 °F (Jun 8, 6:15 am)44% (Jun 14, 2:55 pm)29.77 "Hg (Jun 10, 5:15 pm)
Average82 °F80%29.91 "Hg
* Reported Jun 7 1:15 pm — Jun 22 1:55 pm, Wharton. Weather by CustomWeather, © 2024

Note: Actual official high and low records may vary slightly from our data, if they occured in-between our weather recording intervals... More about our weather records

Wharton Weather History for the Previous 24 Hours

Scroll right to see more
 ConditionsComfort  
Time TempWeatherWind HumidityBarometerVisibility
1:55 pm
Sat, Jun 22
89 °FPartly sunny.9 mph55%30.03 "Hg10 mi
1:35 pm90 °FPartly sunny.10 mph55%30.03 "Hg10 mi
1:15 pm89 °FScattered clouds.7 mph57%30.03 "Hg10 mi
12:55 pm90 °FScattered clouds.8 mph55%30.03 "Hg10 mi
12:35 pm89 °FPartly sunny.9 mph57%30.04 "Hg10 mi
11:55 am88 °FScattered clouds.7 mph60%30.05 "Hg10 mi
11:35 am88 °FBroken clouds.7 mph62%30.05 "Hg10 mi
11:15 am87 °FScattered clouds.8 mph65%30.06 "Hg10 mi
10:55 am87 °FScattered clouds.8 mph65%30.06 "Hg10 mi
10:35 am87 °FScattered clouds.6 mph68%30.06 "Hg10 mi
10:15 am86 °FScattered clouds.7 mph70%30.06 "Hg10 mi
9:55 am85 °FScattered clouds.5 mph78%30.06 "Hg10 mi
9:35 am84 °FScattered clouds.6 mph79%30.07 "Hg10 mi
9:15 am83 °FSunny.6 mph81%30.07 "Hg10 mi
8:55 am83 °FSunny.6 mph83%30.07 "Hg10 mi
8:35 am82 °FSunny.5 mph87%30.07 "Hg10 mi
7:55 am79 °FSunny.No wind94%30.07 "Hg10 mi
7:35 am77 °FSunny.3 mph96%30.07 "Hg7 mi
7:15 am76 °FSunny.3 mph98%30.07 "Hg7 mi
6:55 am75 °FFog.3 mph98%30.07 "Hg5 mi
6:35 am74 °FFog.No wind99%30.07 "Hg5 mi
6:15 am75 °FLight rain. Clear.No wind99%30.07 "Hg5 mi
5:55 am74 °FClear.No wind99%30.06 "Hg7 mi
5:35 am75 °FClear.No wind98%30.06 "Hg7 mi
5:15 am74 °FFog.No wind99%30.06 "Hg5 mi
4:55 am74 °FClear.3 mph99%30.06 "Hg7 mi
4:35 am75 °FClear.3 mph98%30.06 "Hg7 mi
3:55 am76 °FClear.No wind97%30.06 "Hg10 mi
3:35 am76 °FClear.No wind97%30.06 "Hg10 mi
2:55 am76 °FClear.No wind97%30.06 "Hg7 mi
2:35 am76 °FPassing clouds.No wind97%30.06 "Hg10 mi
1:55 am76 °FClear.3 mph96%30.07 "Hg10 mi
1:35 am76 °FClear.3 mph95%30.07 "Hg10 mi
1:15 am76 °FClear.No wind95%30.07 "Hg10 mi
12:55 am77 °FPassing clouds.No wind94%30.07 "Hg10 mi
12:35 am76 °FClear.No wind95%30.07 "Hg7 mi
12:15 am77 °FClear.No wind93%30.08 "Hg10 mi
11:55 pm
Fri, Jun 21
77 °FClear.No wind94%30.07 "Hg10 mi
11:35 pm77 °FClear.3 mph93%30.08 "Hg10 mi
11:15 pm77 °FClear.No wind92%30.08 "Hg10 mi
10:55 pm78 °FClear.No wind90%30.08 "Hg10 mi
10:35 pm78 °FClear.No wind91%30.07 "Hg10 mi
10:15 pm78 °FClear.No wind89%30.07 "Hg10 mi
9:55 pm79 °FClear.5 mph87%30.06 "Hg10 mi
9:35 pm79 °FClear.5 mph86%30.06 "Hg10 mi
8:55 pm80 °FClear.6 mph83%30.05 "Hg10 mi
8:35 pm81 °FClear.5 mph83%30.05 "Hg10 mi
8:15 pm83 °FSunny.5 mph77%30.04 "Hg10 mi
7:55 pm84 °FSunny.7 mph73%30.04 "Hg10 mi
7:35 pm85 °FScattered clouds.9 mph71%30.04 "Hg10 mi
6:55 pm87 °FScattered clouds.8 mph64%30.03 "Hg10 mi
6:35 pm87 °FScattered clouds.8 mph66%30.03 "Hg10 mi
6:15 pm88 °FScattered clouds.12 mph65%30.03 "Hg10 mi
5:55 pm89 °FScattered clouds.12 mph64%30.03 "Hg10 mi
5:35 pm89 °FScattered clouds.9 mph64%30.03 "Hg10 mi
5:15 pm89 °FScattered clouds.14 mph63%30.03 "Hg10 mi
4:55 pm90 °FScattered clouds.10 mph62%30.04 "Hg10 mi
4:15 pm90 °FScattered clouds.9 mph62%30.05 "Hg10 mi
3:55 pm91 °FScattered clouds.12 mph60%30.05 "Hg10 mi
3:15 pm90 °FScattered clouds.10 mph57%30.06 "Hg10 mi
Weather by CustomWeather, © 2024

See weather overview